This is the latest recevied weather packets stored in our database for station/object KL4TQ. If no packets are shown the sender has not sent any weather packets the latest 10 day(s).
| Time | Temp. | Humidity | Pressure | Rain* | Wind** | Luminosity | Snow |
|---|---|---|---|---|---|---|---|
| 1778033170 | 6.67° C | 78% | 857 hPa | 0 mm | - | 225 W/m² | - |
| 1778032868 | 6.67° C | 78% | 857 hPa | 0 mm | - | 255 W/m² | - |
| 1778032569 | 6.67° C | 78% | 857 hPa | 0 mm | - | 274 W/m² | - |
| 1778032269 | 6.67° C | 79% | 857 hPa | 0 mm | - | 261 W/m² | - |
| 1778031969 | 6.67° C | 79% | 857 hPa | 0 mm | - | 301 W/m² | - |
| 1778031668 | 6.67° C | 79% | 857 hPa | 0 mm | - | 292 W/m² | - |
| 1778031368 | 6.67° C | 80% | 857 hPa | 0 mm | - | 258 W/m² | - |
| 1778031069 | 6.67° C | 80% | 857 hPa | 0 mm | - | 241 W/m² | - |
| 1778030768 | 6.67° C | 80% | 857 hPa | 0 mm | - | 223 W/m² | - |
| 1778030469 | 6.67° C | 80% | 857 hPa | 0 mm | - | 200 W/m² | - |
| 1778030169 | 6.67° C | 79% | 857 hPa | 0 mm | - | 185 W/m² | - |
| 1778029870 | 7.22° C | 78% | 857 hPa | 0 mm | - | 320 W/m² | - |
| 1778029568 | 7.78° C | 77% | 857 hPa | 0 mm | - | 292 W/m² | - |
| 1778029269 | 7.78° C | 75% | 857 hPa | 0 mm | - | 368 W/m² | - |
| 1778028970 | 7.78° C | 75% | 858 hPa | 0 mm | - | 753 W/m² | - |
| 1778028670 | 7.78° C | 76% | 858 hPa | 0 mm | - | 706 W/m² | - |
| 1778028369 | 7.22° C | 78% | 857 hPa | 0 mm | - | 607 W/m² | - |
| 1778028069 | 6.67° C | 79% | 857 hPa | 0 mm | - | 488 W/m² | - |
| 1778027769 | 6.67° C | 80% | 857 hPa | 0 mm | - | 420 W/m² | - |
| 1778027469 | 6.67° C | 81% | 857 hPa | 0 mm | - | 409 W/m² | - |
| 1778027168 | 6.11° C | 81% | 857 hPa | 0 mm | - | 381 W/m² | - |
| 1778026868 | 6.11° C | 82% | 857 hPa | 0 mm | - | 418 W/m² | - |
| 1778026568 | 6.11° C | 82% | 857 hPa | 0 mm | - | 371 W/m² | - |
| 1778026269 | 6.11° C | 81% | 857 hPa | 0 mm | - | 232 W/m² | - |
| 1778025968 | 6.67° C | 81% | 857 hPa | 0 mm | - | 403 W/m² | - |
* Rain latest hour (hover to see other rain measurements)
** Current wind speed in m/s (hover to see current wind gust speed)